DW7783 Albolote (Granada) ES current weather conditions

sailwx.info

Wind from 031 at 2 knots

Air temperature 12.8° C
Dewpoint 3.7° C

Last reported at 2018-Jan-21 18:01 UTC.
Time now 2018-Jan-21 18:39 UTC

Location: N 37°19' W 003°39'.
View on Google Maps.

See reports from other nearby stations

  
Tides and Currents Weather Stations Pressure Air Temp Water Temp Dewpoint Dewpoint Depression Visibility Wind Speed Wind Dir Waves Ship Positions
date/time (UTC)wind fromknots sea level pressurealtimeterstation pressurevisibilityair tempwater tempwave heightnotes
2018-Jan-21 18:01 031 2 12.8
2018-Jan-21 17:46 043 1 13.3
2018-Jan-21 17:31 007 2 13.9
2018-Jan-21 17:16 017 2 15.0
2018-Jan-21 17:01 001 2 16.1
2018-Jan-21 16:46 331 2 16.7
2018-Jan-21 16:31 338 3 17.2
2018-Jan-21 16:16 349 3 17.2
2018-Jan-21 16:01 348 4 17.2
2018-Jan-21 15:46 007 4 17.2
2018-Jan-21 15:31 320 4 17.8
2018-Jan-21 15:16 348 4 17.8
2018-Jan-21 15:01 321 5 17.8
2018-Jan-21 14:46 319 5 17.8
2018-Jan-21 14:31 319 4 18.3
2018-Jan-21 14:16 017 1 17.2
2018-Jan-21 14:01 222 3 16.7
2018-Jan-21 13:46 217 3 16.1
2018-Jan-21 13:31 230 4 15.0
2018-Jan-21 13:16 217 4 15.0
2018-Jan-21 13:01 231 4 14.4
2018-Jan-21 12:46 224 3 14.4
2018-Jan-21 12:31 191 2 17.2
2018-Jan-21 12:16 050 2 17.2
2018-Jan-21 12:01 181 1 15.0
2018-Jan-21 11:46 219 2 13.3
2018-Jan-21 11:30 221 1 11.7
2018-Jan-21 11:15 206 2 11.1
2018-Jan-21 11:00 204 3 10.6
2018-Jan-21 10:45 217 2 11.1
2018-Jan-21 10:30 210 2 11.1
2018-Jan-21 10:15 071 10.6
2018-Jan-21 10:00 071 10.0
2018-Jan-21 09:45 071 2 8.3
2018-Jan-21 09:30 057 2 7.2
2018-Jan-21 09:15 053 3 6.1
2018-Jan-21 09:00 061 2 4.4
2018-Jan-21 08:45 058 2 3.3
2018-Jan-21 08:30 028 1 2.2
2018-Jan-21 08:15 046 1 1.7
2018-Jan-21 07:59 051 1 2.2
2018-Jan-21 07:44 040 0 0.6
2018-Jan-21 07:29 037 0 0.6
2018-Jan-21 07:14 054 0 -0.6
2018-Jan-21 06:59 049 0 -0.0
2018-Jan-21 06:44 047 0 0.6
2018-Jan-21 06:29 052 1 1.1
2018-Jan-21 06:14 065 1 0.6
2018-Jan-21 05:59 052 0 0.6
2018-Jan-21 05:44 056 0 0.6
2018-Jan-21 05:29 058 0 0.6
2018-Jan-21 05:14 048 1 0.6
2018-Jan-21 04:59 054 1 0.6
2018-Jan-21 04:44 052 1 0.6
2018-Jan-21 04:29 040 1 0.6
2018-Jan-21 04:14 058 0 0.6
2018-Jan-21 03:59 067 0 0.6
2018-Jan-21 03:44 052 0 1.1
2018-Jan-21 03:29 049 0 1.1
2018-Jan-21 03:14 056 0 1.1
2018-Jan-21 02:59 045 1 1.1
2018-Jan-21 02:44 042 1 1.7
2018-Jan-21 02:29 058 1 1.7
2018-Jan-21 02:14 049 1 1.7
2018-Jan-21 01:59 049 1 1.7
2018-Jan-21 01:44 042 1 1.7
2018-Jan-21 01:29 046 0 1.7
2018-Jan-21 01:14 052 1 2.2
2018-Jan-21 00:59 042 1 2.2
2018-Jan-21 00:44 046 1 2.2
2018-Jan-21 00:29 060 1 2.8
2018-Jan-21 00:14 044 1 2.8
2018-Jan-20 23:59 040 1 2.8
2018-Jan-20 23:44 041 1 3.3
2018-Jan-20 23:29 050 1 3.3
2018-Jan-20 23:14 057 1 3.3
2018-Jan-20 22:59 045 0 3.9
2018-Jan-20 22:44 043 1 3.9
2018-Jan-20 22:29 042 1 3.3
2018-Jan-20 22:14 040 1 3.9
2018-Jan-20 21:58 039 0 3.9
2018-Jan-20 21:43 049 0 4.4
2018-Jan-20 21:28 057 0 5.0
2018-Jan-20 21:13 262 1 5.0
2018-Jan-20 20:58 254 0 5.6
2018-Jan-20 20:43 251 0 6.1
2018-Jan-20 20:28 250 1 6.7
2018-Jan-20 20:13 250 1 6.7
2018-Jan-20 19:58 246 0 7.2
2018-Jan-20 19:43 246 0 7.8
2018-Jan-20 19:28 246 0 7.8
2018-Jan-20 19:13 242 8.9
2018-Jan-20 18:58 242 0 8.9
2018-Jan-20 18:43 242 0 9.4
2018-Jan-20 18:28 242 0 10.0
2018-Jan-20 18:13 242 11.1
2018-Jan-20 17:58 242 11.1
2018-Jan-20 17:43 246 1 12.2
2018-Jan-20 17:28 246 0 12.8
2018-Jan-20 17:13 246 1 13.3
2018-Jan-20 16:58 246 3 14.4
2018-Jan-20 16:43 234 3 15.0
2018-Jan-20 16:28 230 3 15.6
2018-Jan-20 16:13 225 3 15.6
2018-Jan-20 15:58 220 4 15.6
2018-Jan-20 15:43 212 4 15.6
2018-Jan-20 15:28 211 2 16.1
2018-Jan-20 15:13 210 3 15.6
2018-Jan-20 14:58 214 3 15.0
2018-Jan-20 14:43 216 4 15.0
2018-Jan-20 14:28 202 3 15.0
2018-Jan-20 14:13 202 3 14.4
2018-Jan-20 13:58 203 2 13.9
2018-Jan-20 13:43 201 3 14.4
2018-Jan-20 13:28 198 3 14.4
2018-Jan-20 13:13 223 2 13.3
2018-Jan-20 12:58 221 1 13.3
2018-Jan-20 12:43 219 3 12.8
2018-Jan-20 12:28 163 2 12.8
2018-Jan-20 12:13 168 2 12.2
2018-Jan-20 11:58 194 2 11.7
2018-Jan-20 11:43 187 3 11.7
2018-Jan-20 11:28 210 3 11.1
2018-Jan-20 11:13 206 2 10.6
2018-Jan-20 10:58 056 1 9.4
2018-Jan-20 10:42 058 8.9
2018-Jan-20 10:27 058 7.8
2018-Jan-20 10:12 058 1 7.2
2018-Jan-20 09:57 057 1 6.1
2018-Jan-20 09:42 065 0 5.6
2018-Jan-20 09:27 068 1 5.0
2018-Jan-20 09:12 077 0 5.0
2018-Jan-20 08:57 079 0 4.4
2018-Jan-20 08:42 051 1 3.3
2018-Jan-20 08:27 056 0 2.2
2018-Jan-20 08:12 054 1 1.7
2018-Jan-20 07:57 050 0 1.1
2018-Jan-20 07:42 046 1 0.6
2018-Jan-20 07:27 056 1 0.6
2018-Jan-20 07:12 070 1 -0.0
2018-Jan-20 06:57 063 1 -0.0
2018-Jan-20 06:42 066 1 -0.0
2018-Jan-20 06:27 061 0 -0.0
2018-Jan-20 06:12 061 1 0.6
2018-Jan-20 05:57 051 1 0.6
2018-Jan-20 05:42 048 1 0.6
2018-Jan-20 05:27 054 1 0.6
2018-Jan-20 05:12 049 1 1.1
2018-Jan-20 04:57 035 0 1.7
2018-Jan-20 04:42 033 0 1.7
2018-Jan-20 04:27 042 0 1.7
2018-Jan-20 04:12 063 0 1.1
2018-Jan-20 03:57 075 0 1.1
2018-Jan-20 03:42 069 1 1.7
2018-Jan-20 03:27 053 1 1.7
2018-Jan-20 03:12 050 1 1.7
2018-Jan-20 02:57 065 1 2.2
2018-Jan-20 02:42 058 1 2.2
2018-Jan-20 02:26 052 0 2.2
2018-Jan-20 02:11 045 1 2.2
2018-Jan-20 01:56 063 0 2.2
2018-Jan-20 01:41 055 1 2.2
2018-Jan-20 01:26 061 1 2.8
2018-Jan-20 01:11 058 1 3.3
2018-Jan-20 00:56 029 1 3.3
2018-Jan-20 00:41 054 0 2.8
2018-Jan-20 00:26 041 1 3.3
2018-Jan-20 00:11 042 1 3.3
2018-Jan-19 23:56 057 1 3.3
2018-Jan-19 23:41 058 1 3.9
2018-Jan-19 23:26 055 1 3.9
2018-Jan-19 23:11 059 2 3.9
2018-Jan-19 22:56 063 3.3
2018-Jan-19 22:41 069 0 3.9
2018-Jan-19 22:26 066 1 4.4
2018-Jan-19 22:11 058 2 4.4
2018-Jan-19 21:56 050 1 4.4
2018-Jan-19 21:41 056 1 5.0
2018-Jan-19 21:26 045 2 5.0
2018-Jan-19 21:11 041 2 5.6
2018-Jan-19 20:56 050 2 5.6
2018-Jan-19 20:41 054 1 6.1
2018-Jan-19 20:26 053 1 6.1
2018-Jan-19 20:11 054 1 6.1
2018-Jan-19 19:56 052 0 6.1
2018-Jan-19 19:41 048 1 6.7
2018-Jan-19 19:26 054 1 6.7
2018-Jan-19 19:11 058 1 7.2
2018-Jan-19 18:56 115 7.2
2018-Jan-19 18:41 196 8.3
2018-Jan-19 18:26 197 9.4
2018-Jan-19 18:11 197 10.0